When you browse on this site, cookies collect data to enhance your experience and personalize the content and advertising you see.
Visit our Privacy Policy to learn more. By continuing to use the site, you agree to this use of cookies and data.
  • în România
  • Lista ţărilor
  • Pe 7 zile
  • Temperatura apei
  • Hartă satelitară
  • Meteo pe hartă
  • Widget-uri
  • user-avatar
    Intrare

    Meteo pe oră la Sidi Bu-l-Abbas

    Astăzi, 22 Ianuarie, Marţi

    Timp Temperatura Precipitaţii Vânt Presiune Umiditate
    00:00 +6°C° 0 mm 2 m/s 721 mmHg 75%
    01:00 +6°C° 0.1 mm 2 m/s 721 mmHg 75%
    02:00 +5°C° 0.1 mm 3 m/s 721 mmHg 74%
    03:00 +4°C° 0.1 mm 3 m/s 721 mmHg 74%
    04:00 +4°C° 0 mm 3 m/s 721 mmHg 75%
    05:00 +4°C° 0 mm 3 m/s 721 mmHg 75%
    06:00 +4°C° 0 mm 3 m/s 721 mmHg 76%
    07:00 +4°C° 0 mm 4 m/s 721 mmHg 75%
    08:00 +5°C° 0 mm 4 m/s 721 mmHg 74%
    09:00 +6°C° 0 mm 5 m/s 722 mmHg 73%
    10:00 +7°C° 0.1 mm 6 m/s 721 mmHg 71%
    11:00 +7°C° 0.1 mm 8 m/s 721 mmHg 69%
    12:00 +7°C° 0.1 mm 9 m/s 721 mmHg 67%
    13:00 +8°C° 0.1 mm 10 m/s 720 mmHg 65%
    14:00 +8°C° 0.1 mm 10 m/s 719 mmHg 63%
    15:00 +8°C° 0.1 mm 11 m/s 719 mmHg 61%
    16:00 +7°C° 0.1 mm 11 m/s 719 mmHg 67%
    17:00 +7°C° 0.1 mm 10 m/s 718 mmHg 72%
    18:00 +6°C° 0.1 mm 10 m/s 718 mmHg 78%
    19:00 +6°C° 0.3 mm 10 m/s 718 mmHg 79%
    20:00 +6°C° 0.3 mm 11 m/s 718 mmHg 80%
    21:00 +6°C° 0.3 mm 11 m/s 718 mmHg 80%
    22:00 +6°C° 1.2 mm 11 m/s 718 mmHg 84%
    23:00 +5°C° 1.2 mm 12 m/s 718 mmHg 88%

    Mâine, 23 Ianuarie, Miercuri

    Timp Temperatura Precipitaţii Vânt Presiune Umiditate
    00:00 +5°C° 1.2 mm 12 m/s 717 mmHg 91%
    01:00 +5°C° 3.2 mm 12 m/s 717 mmHg 91%
    02:00 +5°C° 3.2 mm 12 m/s 717 mmHg 90%
    03:00 +5°C° 3.2 mm 13 m/s 716 mmHg 90%
    04:00 +5°C° 2.1 mm 12 m/s 716 mmHg 88%
    05:00 +6°C° 2.1 mm 11 m/s 716 mmHg 87%
    06:00 +6°C° 2.1 mm 10 m/s 716 mmHg 86%
    07:00 +7°C° 0.6 mm 10 m/s 717 mmHg 85%
    08:00 +7°C° 0.6 mm 9 m/s 717 mmHg 84%
    09:00 +7°C° 0.6 mm 9 m/s 718 mmHg 83%
    10:00 +8°C° 0.1 mm 10 m/s 717 mmHg 81%
    11:00 +8°C° 0.1 mm 11 m/s 717 mmHg 79%
    12:00 +8°C° 0.1 mm 12 m/s 717 mmHg 78%
    13:00 +8°C° 0 mm 12 m/s 716 mmHg 76%
    14:00 +8°C° 0 mm 13 m/s 716 mmHg 74%
    15:00 +9°C° 0 mm 14 m/s 715 mmHg 72%
    16:00 +8°C° 0 mm 13 m/s 716 mmHg 75%
    17:00 +8°C° 0 mm 13 m/s 716 mmHg 79%
    18:00 +7°C° 0 mm 13 m/s 716 mmHg 82%
    19:00 +7°C° 0.2 mm 12 m/s 716 mmHg 83%
    20:00 +8°C° 0.2 mm 12 m/s 717 mmHg 84%
    21:00 +8°C° 0.2 mm 12 m/s 717 mmHg 85%
    22:00 +8°C° 0.2 mm 12 m/s 717 mmHg 86%
    23:00 +8°C° 0.2 mm 12 m/s 716 mmHg 87%

    Poimâine, 24 Ianuarie, Joi

    Timp Temperatura Precipitaţii Vânt Presiune Umiditate
    00:00 +8°C° 0.2 mm 11 m/s 716 mmHg 88%
    01:00 +8°C° 0.2 mm 11 m/s 716 mmHg 88%
    02:00 +8°C° 0.2 mm 11 m/s 715 mmHg 88%
    03:00 +8°C° 0.2 mm 11 m/s 715 mmHg 88%
    04:00 +8°C° 0.2 mm 11 m/s 715 mmHg 88%
    05:00 +7°C° 0.2 mm 11 m/s 715 mmHg 88%
    06:00 +7°C° 0.2 mm 11 m/s 715 mmHg 88%
    07:00 +8°C° 0.5 mm 11 m/s 715 mmHg 85%
    08:00 +8°C° 0.5 mm 11 m/s 715 mmHg 81%
    09:00 +8°C° 0.5 mm 11 m/s 716 mmHg 78%
    10:00 +8°C° 0.3 mm 11 m/s 716 mmHg 75%
    11:00 +8°C° 0.3 mm 10 m/s 717 mmHg 72%
    12:00 +8°C° 0.3 mm 10 m/s 717 mmHg 69%
    13:00 +8°C° 0.1 mm 9 m/s 717 mmHg 67%
    14:00 +7°C° 0.1 mm 9 m/s 716 mmHg 65%
    15:00 +7°C° 0.1 mm 8 m/s 716 mmHg 64%
    16:00 +7°C° 0.1 mm 6 m/s 716 mmHg 64%
    17:00 +7°C° 0.1 mm 4 m/s 717 mmHg 64%
    18:00 +8°C° 0.1 mm 2 m/s 717 mmHg 64%
    19:00 +7°C° 0 mm 2 m/s 718 mmHg 64%
    20:00 +7°C° 0 mm 3 m/s 718 mmHg 63%
    21:00 +7°C° 0 mm 3 m/s 719 mmHg 62%
    22:00 +7°C° 0 mm 3 m/s 719 mmHg 61%
    23:00 +5°C° 0 mm 3 m/s 719 mmHg 61%

    25 Ianuarie, Vineri

    Timp Temperatura Precipitaţii Vânt Presiune Umiditate
    00:00 +5°C° 0 mm 3 m/s 720 mmHg 60%
    01:00 +4°C° 0 mm 3 m/s 720 mmHg 61%
    02:00 +5°C° 0 mm 2 m/s 719 mmHg 62%
    03:00 +4°C° 0 mm 2 m/s 719 mmHg 63%
    04:00 +4°C° 0 mm 2 m/s 720 mmHg 64%
    05:00 +4°C° 0 mm 2 m/s 720 mmHg 65%
    06:00 +4°C° 0 mm 2 m/s 720 mmHg 65%
    07:00 +5°C° 0 mm 2 m/s 721 mmHg 62%
    08:00 +6°C° 0 mm 2 m/s 721 mmHg 59%
    09:00 +6°C° 0 mm 2 m/s 722 mmHg 56%
    10:00 +7°C° 0 mm 2 m/s 722 mmHg 51%
    11:00 +8°C° 0 mm 3 m/s 722 mmHg 47%
    12:00 +9°C° 0 mm 3 m/s 722 mmHg 42%
    13:00 +10°C° 0 mm 4 m/s 722 mmHg 42%
    14:00 +10°C° 0 mm 4 m/s 722 mmHg 42%
    15:00 +9°C° 0 mm 5 m/s 722 mmHg 42%
    16:00 +8°C° 0 mm 4 m/s 722 mmHg 48%
    17:00 +8°C° 0 mm 3 m/s 722 mmHg 54%
    18:00 +7°C° 0 mm 2 m/s 722 mmHg 60%
    19:00 +7°C° 0 mm 2 m/s 723 mmHg 61%
    20:00 +6°C° 0 mm 2 m/s 723 mmHg 63%
    21:00 +6°C° 0 mm 2 m/s 723 mmHg 64%
    22:00 +6°C° 0 mm 2 m/s 723 mmHg 61%
    23:00 +6°C° 0 mm 2 m/s 723 mmHg 59%

    26 Ianuarie, Sâmbătă

    Timp Temperatura Precipitaţii Vânt Presiune Umiditate
    00:00 +5°C° 0 mm 2 m/s 723 mmHg 56%
    01:00 +5°C° 0 mm 2 m/s 723 mmHg 52%
    02:00 +6°C° 0 mm 1 m/s 723 mmHg 48%
    03:00 +6°C° 0 mm 1 m/s 722 mmHg 44%
    04:00 +6°C° 0 mm 1 m/s 722 mmHg 43%
    05:00 +6°C° 0 mm 1 m/s 722 mmHg 41%
    06:00 +6°C° 0 mm 1 m/s 722 mmHg 40%
    07:00 +8°C° 0 mm 1 m/s 723 mmHg 39%
    08:00 +10°C° 0 mm 1 m/s 723 mmHg 38%
    09:00 +11°C° 0 mm 1 m/s 724 mmHg 37%
    10:00 +13°C° 0 mm 1 m/s 724 mmHg 37%
    11:00 +14°C° 0 mm 1 m/s 724 mmHg 36%
    12:00 +15°C° 0 mm 1 m/s 724 mmHg 36%
    13:00 +16°C° 0 mm 1 m/s 723 mmHg 36%
    14:00 +16°C° 0 mm 1 m/s 722 mmHg 35%
    15:00 +18°C° 0 mm 1 m/s 721 mmHg 35%
    16:00 +15°C° 0 mm 1 m/s 721 mmHg 41%
    17:00 +14°C° 0 mm 1 m/s 721 mmHg 48%
    18:00 +12°C° 0 mm 1 m/s 721 mmHg 54%
    19:00 +11°C° 0 mm 1 m/s 721 mmHg 55%
    20:00 +11°C° 0 mm 1 m/s 721 mmHg 55%
    21:00 +10°C° 0 mm 2 m/s 721 mmHg 55%
    22:00 +9°C° 0 mm 2 m/s 721 mmHg 52%
    23:00 +9°C° 0 mm 2 m/s 720 mmHg 49%

    27 Ianuarie, Duminică

    Timp Temperatura Precipitaţii Vânt Presiune Umiditate
    00:00 +9°C° 0 mm 3 m/s 720 mmHg 45%
    01:00 +9°C° 0 mm 2 m/s 720 mmHg 45%
    02:00 +9°C° 0 mm 2 m/s 720 mmHg 45%
    03:00 +8°C° 0 mm 2 m/s 719 mmHg 45%
    04:00 +8°C° 0 mm 3 m/s 719 mmHg 48%
    05:00 +8°C° 0 mm 3 m/s 719 mmHg 51%
    06:00 +8°C° 0 mm 3 m/s 719 mmHg 55%
    07:00 +8°C° 0 mm 5 m/s 720 mmHg 60%
    08:00 +9°C° 0 mm 6 m/s 720 mmHg 64%
    09:00 +10°C° 0 mm 7 m/s 720 mmHg 69%
    10:00 +10°C° 0.1 mm 8 m/s 720 mmHg 71%
    11:00 +10°C° 0.1 mm 9 m/s 720 mmHg 73%
    12:00 +11°C° 0.1 mm 10 m/s 720 mmHg 75%
    13:00 +10°C° 0.3 mm 9 m/s 720 mmHg 75%
    14:00 +10°C° 0.3 mm 8 m/s 720 mmHg 74%
    15:00 +10°C° 0.3 mm 7 m/s 720 mmHg 74%
    16:00 +9°C° 0.1 mm 6 m/s 720 mmHg 76%
    17:00 +8°C° 0.1 mm 4 m/s 720 mmHg 77%
    18:00 +9°C° 0.1 mm 3 m/s 720 mmHg 79%
    19:00 +9°C° 0.1 mm 3 m/s 720 mmHg 79%
    20:00 +8°C° 0.1 mm 2 m/s 721 mmHg 80%
    21:00 +8°C° 0.1 mm 2 m/s 721 mmHg 80%
    22:00 +8°C° 0 mm 2 m/s 721 mmHg 80%
    23:00 +8°C° 0 mm 2 m/s 721 mmHg 79%
    Arată mai mult